Frederick, MD

3:32 PM EST on January 22, 2017 (GMT -0500)
Frederick Municipal

Weather History for KFDK - March, 2012

Change the Weather History Date:

Tuesday, March 27, 2012

  Actual Average (KHGR) Record (KHGR)
Temperature  
Mean Temperature 42 °F -  
Max Temperature 57 °F 54 °F 84 °F (1998)
Min Temperature 28 °F 36 °F 19 °F (2001)
Degree Days  
Heating Degree Days 22    
Moisture  
Dew Point 20 °F    
Average Humidity 43    
Maximum Humidity 64    
Minimum Humidity 26    
Precipitation  
Precipitation 0.00 in - - ()
Sea Level Pressure  
Sea Level Pressure 30.33 in    
Wind  
Wind Speed 7 mph (NW)    
Max Wind Speed 14 mph    
Max Gust Speed 17 mph    
Visibility 10 miles    
Events      
Averages and records for this station are not official NWS values.
T = Trace of Precipitation, MM = Missing Value Source: NWS Daily Summary

Daily Weather History Graph

Daily Weather History Graph

Search for Another Location

Airport or City:

Trip Planner

Search our weather history database for the weather conditions in past years. The results will help you decide how hot, cold, wet, or windy it might be!

Date:

Astronomy

Mar. 27, 2012 Rise Set
Actual Time 7:01 AM EDT 7:28 PM EDT
Civil Twilight 6:34 AM EDT 7:55 PM EDT
Nautical Twilight 6:02 AM EDT 8:27 PM EDT
Astronomical Twilight 5:30 AM EDT 9:00 PM EDT
Moon 9:31 AM EDT (3/27) No Moon Set
Length of Visible Light 13h 21m
Length of Day
12h 27m
Waxing Crescent, 22% of the Moon is Illuminated
Mar 27
Waxing Crescent
Mar 30
First Quarter
Apr 6
Full
Apr 13
Last Quarter
Apr 21
New

Hourly Weather History & Observations

Time (EDT) Temp. Windchill Dew Point Humidity Pressure Visibility Wind Dir Wind Speed Gust Speed Precip Events Conditions
12:00 AM 37.4 °F 29.8 °F 14.0 °F 38% 30.26 in 10.0 mi NNW 11.5 mph 16.1 mph N/A   Clear
12:25 AM 37.4 °F 28.9 °F 14.0 °F 38% 30.27 in 10.0 mi NNW 13.8 mph 17.3 mph N/A   Clear
12:45 AM 37.4 °F 30.3 °F 14.0 °F 38% 30.28 in 10.0 mi NNW 10.4 mph - N/A   Clear
1:05 AM 35.6 °F 28.0 °F 14.0 °F 41% 30.28 in 10.0 mi NNW 10.4 mph 17.3 mph N/A   Clear
1:25 AM 35.6 °F 28.0 °F 14.0 °F 41% 30.28 in 10.0 mi NNW 10.4 mph - N/A   Clear
1:50 AM 33.8 °F 27.0 °F 14.0 °F 44% 30.29 in 10.0 mi NNW 8.1 mph - N/A   Clear
2:10 AM 33.8 °F 26.4 °F 14.0 °F 44% 30.29 in 10.0 mi NNW 9.2 mph - N/A   Clear
2:30 AM 33.8 °F 28.6 °F 14.0 °F 44% 30.29 in 10.0 mi NNW 5.8 mph - N/A   Clear
2:50 AM 33.8 °F 30.8 °F 14.0 °F 44% 30.30 in 10.0 mi NNW 3.5 mph - N/A   Clear
3:15 AM 32.0 °F 26.4 °F 14.0 °F 48% 30.31 in 10.0 mi NNW 5.8 mph - N/A   Clear
3:35 AM 32.0 °F 26.4 °F 15.8 °F 51% 30.31 in 10.0 mi NNW 5.8 mph - N/A   Clear
3:55 AM 32.0 °F 28.7 °F 15.8 °F 51% 30.30 in 10.0 mi North 3.5 mph - N/A   Clear
4:20 AM 32.0 °F 28.7 °F 17.6 °F 55% 30.31 in 10.0 mi North 3.5 mph - N/A   Clear
4:40 AM 30.2 °F - 15.8 °F 55% 30.32 in 10.0 mi Calm Calm - N/A   Clear
5:00 AM 30.2 °F 25.4 °F 17.6 °F 60% 30.33 in 10.0 mi WNW 4.6 mph - N/A   Clear
5:20 AM 30.2 °F 23.4 °F 17.6 °F 60% 30.33 in 10.0 mi NW 6.9 mph - N/A   Clear
5:45 AM 30.2 °F 25.4 °F 17.6 °F 60% 30.34 in 10.0 mi WNW 4.6 mph - N/A   Clear
6:05 AM 30.2 °F 26.7 °F 17.6 °F 60% 30.34 in 10.0 mi NNW 3.5 mph - N/A   Clear
6:25 AM 30.2 °F 23.4 °F 17.6 °F 60% 30.35 in 10.0 mi NW 6.9 mph - N/A   Clear
6:45 AM 28.4 °F 23.3 °F 17.6 °F 64% 30.36 in 10.0 mi WNW 4.6 mph - N/A   Clear
7:10 AM 28.4 °F 24.6 °F 17.6 °F 64% 30.37 in 10.0 mi NW 3.5 mph - N/A   Clear
7:30 AM 28.4 °F 23.3 °F 17.6 °F 64% 30.38 in 10.0 mi NW 4.6 mph - N/A   Clear
7:50 AM 32.0 °F 28.7 °F 19.4 °F 60% 30.39 in 10.0 mi WNW 3.5 mph - N/A   Clear
8:10 AM 33.8 °F - 21.2 °F 60% 30.39 in 10.0 mi Calm Calm - N/A   Clear
8:35 AM 35.6 °F 29.9 °F 17.6 °F 48% 30.40 in 10.0 mi NNW 6.9 mph - N/A   Clear
8:55 AM 37.4 °F 34.9 °F 17.6 °F 45% 30.40 in 10.0 mi NW 3.5 mph - N/A   Clear
9:15 AM 39.2 °F 35.9 °F 19.4 °F 45% 30.40 in 10.0 mi North 4.6 mph - N/A   Clear
9:35 AM 41.0 °F 38.0 °F 17.6 °F 39% 30.40 in 10.0 mi North 4.6 mph - N/A   Clear
10:00 AM 41.0 °F - 19.4 °F 42% 30.40 in 10.0 mi Calm Calm - N/A   Clear
10:20 AM 42.8 °F 40.1 °F 19.4 °F 39% 30.39 in 10.0 mi North 4.6 mph - N/A   Clear
10:40 AM 42.8 °F 38.6 °F 19.4 °F 39% 30.39 in 10.0 mi North 6.9 mph - N/A   Clear
11:00 AM 42.8 °F 39.3 °F 19.4 °F 39% 30.39 in 10.0 mi North 5.8 mph - N/A   Clear
11:25 AM 44.6 °F 40.2 °F 19.4 °F 37% 30.39 in 10.0 mi North 8.1 mph - N/A   Clear
12:05 PM 46.4 °F 42.9 °F 21.2 °F 37% 30.38 in 10.0 mi NE 6.9 mph - N/A   Clear
12:30 PM 48.2 °F - 21.2 °F 34% 30.37 in 10.0 mi North 6.9 mph - N/A   Clear
12:50 PM 50.0 °F - 19.4 °F 30% 30.37 in 10.0 mi North 4.6 mph - N/A   Clear
1:10 PM 50.0 °F - 21.2 °F 32% 30.36 in 10.0 mi NE 6.9 mph - N/A   Clear
1:30 PM 51.8 °F - 21.2 °F 30% 30.36 in 10.0 mi Calm Calm - N/A   Clear
1:55 PM 53.6 °F - 21.2 °F 28% 30.35 in 10.0 mi West 3.5 mph - N/A   Clear
2:15 PM 53.6 °F - 23.0 °F 30% 30.33 in 10.0 mi ENE 3.5 mph - N/A   Clear
2:35 PM 53.6 °F - 23.0 °F 30% 30.33 in 10.0 mi WSW 3.5 mph - N/A   Clear
2:55 PM 55.4 °F - 26.6 °F 33% 30.31 in 10.0 mi North 3.5 mph - N/A   Clear
3:20 PM 57.2 °F - 26.6 °F 31% 30.31 in 10.0 mi South 3.5 mph - N/A   Clear
3:40 PM 55.4 °F - 26.6 °F 33% 30.31 in 10.0 mi SSW 4.6 mph - N/A   Clear
4:00 PM 55.4 °F - 26.6 °F 33% 30.30 in 10.0 mi ESE 4.6 mph - N/A   Clear
4:20 PM 53.6 °F - 23.0 °F 30% 30.29 in 10.0 mi Calm Calm - N/A   Clear
4:45 PM 55.4 °F - 24.8 °F 31% 30.28 in 10.0 mi SSW 5.8 mph - N/A   Clear
5:05 PM 53.6 °F - 23.0 °F 30% 30.28 in 10.0 mi SSW 5.8 mph - N/A   Clear
5:25 PM 55.4 °F - 21.2 °F 26% 30.28 in 10.0 mi SSW 4.6 mph - N/A   Clear
5:45 PM 53.6 °F - 23.0 °F 30% 30.28 in 10.0 mi West 4.6 mph - N/A   Clear
6:10 PM 53.6 °F - 21.2 °F 28% 30.27 in 10.0 mi SW 5.8 mph - N/A   Clear
6:30 PM 53.6 °F - 21.2 °F 28% 30.26 in 10.0 mi SW 3.5 mph - N/A   Clear
6:50 PM 50.0 °F - 26.6 °F 40% 30.26 in 10.0 mi SSW 4.6 mph - N/A   Clear
7:10 PM 48.2 °F - 30.2 °F 50% 30.26 in 10.0 mi SW 4.6 mph - N/A   Clear
7:35 PM 44.6 °F 42.2 °F 30.2 °F 57% 30.25 in 10.0 mi SSW 4.6 mph - N/A   Clear
7:55 PM 44.6 °F 42.2 °F 24.8 °F 46% 30.24 in 10.0 mi SE 4.6 mph - N/A   Clear
8:15 PM 44.6 °F 43.1 °F 21.2 °F 39% 30.23 in 10.0 mi SE 3.5 mph - N/A   Clear
8:35 PM 42.8 °F - 23.0 °F 46% 30.24 in 10.0 mi Calm Calm - N/A   Clear
9:00 PM 41.0 °F 39.0 °F 30.2 °F 65% 30.24 in 10.0 mi ESE 3.5 mph - N/A   Clear
9:20 PM 41.0 °F - 30.2 °F 65% 30.24 in 10.0 mi Calm Calm - N/A   Unknown
9:40 PM 39.2 °F - 30.2 °F 70% 30.24 in 10.0 mi Calm Calm - N/A   Clear
10:05 PM 37.4 °F - 28.4 °F 70% 30.23 in 10.0 mi Calm Calm - N/A   Clear
10:25 PM 37.4 °F - 30.2 °F 75% 30.23 in 10.0 mi Calm Calm - N/A   Clear
10:45 PM 37.4 °F - 26.6 °F 65% 30.23 in 10.0 mi Calm Calm - N/A   Clear
11:05 PM 37.4 °F 34.9 °F 30.2 °F 75% 30.22 in 10.0 mi South 3.5 mph - N/A   Clear
11:30 PM 37.4 °F - 30.2 °F 75% 30.21 in 10.0 mi Calm Calm - N/A   Clear
11:50 PM 35.6 °F 32.8 °F 32.0 °F 87% 30.21 in 10.0 mi SW 3.5 mph - N/A   Clear